This is the latest recevied weather packets stored in our database for station/object DL1BWU. If no packets are shown the sender has not sent any weather packets the latest 10 day(s).
| Time | Temp. | Humidity | Pressure | Rain* | Wind** | Luminosity | Snow |
|---|---|---|---|---|---|---|---|
| 1777355730 | 4.44° C | 60% | 1026.7 hPa | 0 mm | - | - | - |
| 1777355130 | 4.44° C | 60% | 1026.7 hPa | 0 mm | - | - | - |
| 1777354529 | 3.33° C | 61% | 1026.8 hPa | 0 mm | - | - | - |
| 1777353930 | 2.78° C | 62% | 1026.8 hPa | 0 mm | - | - | - |
| 1777353330 | 2.78° C | 62% | 1026.7 hPa | 0 mm | - | - | - |
| 1777352730 | 2.22° C | 62% | 1026.7 hPa | 0 mm | - | - | - |
| 1777352130 | 2.22° C | 62% | 1026.5 hPa | 0 mm | - | - | - |
| 1777351530 | 1.67° C | 63% | 1026.6 hPa | 0 mm | - | - | - |
| 1777350930 | 1.67° C | 63% | 1026.5 hPa | 0 mm | - | - | - |
| 1777350330 | 1.67° C | 63% | 1026.7 hPa | 0 mm | - | - | - |
| 1777349730 | 1.67° C | 63% | 1026.3 hPa | 0 mm | - | - | - |
| 1777349130 | 1.67° C | 63% | 1026.3 hPa | 0 mm | - | - | - |
| 1777348530 | 1.67° C | 62% | 1026.3 hPa | 0 mm | - | - | - |
| 1777347930 | 1.67° C | 62% | 1026.3 hPa | 0 mm | - | - | - |
| 1777347330 | 1.67° C | 62% | 1026.1 hPa | 0 mm | - | - | - |
| 1777346730 | 1.67° C | 62% | 1026.1 hPa | 0 mm | - | - | - |
| 1777346130 | 2.22° C | 61% | 1026 hPa | 0 mm | - | - | - |
| 1777345530 | 2.22° C | 61% | 1025.8 hPa | 0 mm | - | - | - |
| 1777344930 | 2.22° C | 61% | 1025.8 hPa | 0 mm | - | - | - |
| 1777344330 | 2.22° C | 61% | 1025.8 hPa | 0 mm | - | - | - |
| 1777343730 | 2.78° C | 61% | 1025.8 hPa | 0 mm | - | - | - |
| 1777343130 | 2.78° C | 60% | 1025.9 hPa | 0 mm | - | - | - |
| 1777342530 | 2.78° C | 60% | 1025.7 hPa | 0 mm | - | - | - |
| 1777341930 | 2.78° C | 60% | 1025.8 hPa | 0 mm | - | - | - |
| 1777341330 | 3.33° C | 59% | 1025.7 hPa | 0 mm | - | - | - |
* Rain latest hour (hover to see other rain measurements)
** Current wind speed in m/s (hover to see current wind gust speed)